FW2970 Weather Reports


time (UTC)temp
F
wind
direction
speed
knots
gust
knots
rain 1hr
in
rain 24hr
in
rain mn
in
humidity
%
barometer
mb
20260504010010 51 285 5.2 7.8 0.00 0.47 0.00 62 1011.1
20260504004511 51 292 4.3 9.6 0.00 0.47 0.00 61 1011.0
20260504003006 51 288 5.2 12.2 0.00 0.51 0.00 52 1010.6
20260504001505 51 304 7.8 14.8 0.00 0.51 0.00 57 1010.3
20260504000004 52 301 7.0 13.9 0.00 0.51 0.00 51 1010.3
20260503234503 52 321 8.7 14.8 0.00 0.51 0.00 48 1010.0
20260503233059 52 293 7.8 15.6 0.00 0.53 0.00 49 1009.6
20260503231559 52 283 8.7 21.7 0.00 0.53 0.00 47 1009.3
20260503230056 52 335 9.6 20.0 0.00 0.53 0.00 55 1009.0
20260503224556 52 292 11.3 18.2 0.00 0.53 0.00 50 1008.7
20260503223054 52 300 12.2 20.9 0.00 0.53 0.00 47 1008.6
20260503221553 53 307 9.6 17.4 0.00 0.53 0.00 53 1008.3
20260503220106 53 314 9.6 17.4 0.00 0.53 0.00 51 1008.2
20260503214549 52 307 12.2 18.2 0.00 0.53 0.00 54 1008.0
20260503213049 52 313 10.4 16.5 0.00 0.53 0.00 54 1007.8
20260503211601 52 332 6.1 9.6 0.00 0.53 0.00 60 1007.5
20260503210044 52 299 6.1 12.2 0.00 0.53 0.00 56 1007.3
20260503204542 52 307 12.2 19.1 0.00 0.53 0.00 54 1007.2
20260503203041 52 311 11.3 15.6 0.00 0.53 0.00 52 1007.1
20260503201540 52 316 11.3 16.5 0.00 0.53 0.00 57 1007.0
20260503200039 52 307 12.2 19.1 0.00 0.53 0.00 58 1006.9
20260503194539 52 335 10.4 19.1 0.00 0.53 0.00 60 1006.8
20260503193047 52 337 13.0 20.9 0.00 0.53 0.00 57 1006.7
20260503191538 51 313 8.7 13.9 0.00 0.53 0.00 64 1006.8
20260503190037 51 340 8.7 15.6 0.00 0.53 0.00 63 1006.9
20260503184532 50 305 11.3 16.5 0.00 0.53 0.00 62 1007.0
20260503183037 50 320 15.6 23.5 0.00 0.53 0.00 65 1007.1
20260503181552 49 35 15.6 24.3 0.00 0.53 0.00 64 1007.1
20260503180026 49 343 20.0 27.8 0.00 0.53 0.00 66 1007.0
20260503174525 49 314 16.5 26.9 0.00 0.53 0.00 70 1006.9
20260503173041 49 323 15.6 22.6 0.00 0.53 0.00 74 1006.7
20260503171523 48 309 13.0 20.0 0.00 0.53 0.00 78 1006.7
20260503120108 45 333 10.4 13.9 0.00 0.53 0.53 82 1006.7
20260503081531 48 342 13.9 19.1 0.00 0.53 0.53 80 1007.5
20260503071531 48 329 13.0 18.2 0.04 0.53 0.53 87 1008.1
20260503054516 48 304 4.3 7.8 0.07 0.48 0.48 95 1009.3
20260503053011 48 300 4.3 7.8 0.05 0.46 0.46 96 1009.4
20260503051509 48 295 4.3 7.0 0.05 0.44 0.44 96 1009.7
20260503050007 48 288 2.6 5.2 0.05 0.43 0.43 96 1009.9
20260503044506 48 293 0.9 4.3 0.04 0.41 0.41 96 1010.0
20260503043005 48 262 3.5 5.2 0.05 0.41 0.41 96 1010.6
20260503041505 48 283 0.0 0.0 0.04 0.39 0.39 95 1010.4
20260503040006 48 270 0.0 0.0 0.05 0.38 0.38 95 1010.6
20260503034503 48 316 0.0 0.0 0.07 0.37 0.37 95 1010.5
20260503033001 48 316 0.0 1.7 0.08 0.36 0.36 95 1010.6
20260503031601 48 347 0.9 2.6 0.08 0.35 0.35 95 1010.7
20260503030106 48 49 0.0 0.0 0.09 0.33 0.33 95 1010.8
20260503024602 48 49 0.0 5.2 0.10 0.31 0.31 95 1010.8
20260503023101 48 2 0.9 3.5 0.12 0.28 0.28 95 1010.9
20260503021557 48 333 0.9 1.7 0.15 0.28 0.28 95 1011.1
20260503014601 48 142 1.7 2.6 0.16 0.22 0.22 95 1011.7
20260503013107 49 128 1.7 3.5 0.14 0.18 0.18 95 1011.8
20260503011555 49 140 0.0 0.9 0.11 0.14 0.14 95 1011.7